User: anonymous   Login
Location: Mascot Post Office (historical)
(40.2645°N, 99.5462°W)
Time: 11:22:01
(UTC+00:00)
Language:

Okean 2 - Orbit

View from above orbital plane
View from above orbital plane
View from above satellite
View from above satellite

Ground track
Ground track

The orbit data is extracted from the following two-line orbital elements,

1 20510U 90018A   20270.82566278  .00000375  00000-0  28333-4 0  9999
2 20510  82.5125 100.8862 0010637 253.2268 117.2312 14.99515235660882
Epoch (UTC): 26 September 2020 19:48:57
Eccentricity: 0.0010637
inclination: 82.5125°
perigee height: 561 km
apogee height: 576 km
right ascension of ascending node: 100.8862°
argument of perigee: 253.2268°
revolutions per day: 14.99515235
mean anomaly at epoch: 117.2312°
orbit number at epoch: 66088

The dashed part of the orbit path shows where the satellite is in the earth's shadow,  

DLR